FW8541 Weather Reports


time (UTC)temp
C
wind
direction
speed
KPH
gust
KPH
rain 1hr
cm
rain 24hr
cm
rain mn
cm
humidity
%
barometer
mb
20260504201540 23 184 3.2 11.3 0.00 0.00 0.00 43 1009.7
20260504200032 23 228 3.2 11.3 0.00 0.00 0.00 41 1010.0
20260504194538 23 235 4.8 14.5 0.00 0.00 0.00 42 1010.1
20260504193034 23 24 4.8 17.7 0.00 0.00 0.00 40 1010.6
20260504191535 23 259 6.4 17.7 0.00 0.00 0.00 40 1010.7
20260504190049 23 345 3.2 12.9 0.00 0.00 0.00 44 1010.7
20260504184536 23 219 4.8 16.1 0.00 0.00 0.00 43 1011.1
20260504183035 23 249 3.2 14.5 0.00 0.00 0.00 44 1011.5
20260504181542 22 234 1.6 11.3 0.00 0.00 0.00 47 1011.7
20260504180034 21 300 4.8 17.7 0.00 0.00 0.00 47 1011.8
20260504174536 21 142 3.2 11.3 0.00 0.00 0.00 47 1011.8
20260504173035 21 163 4.8 16.1 0.00 0.00 0.00 46 1012.1
20260504171535 20 269 4.8 17.7 0.00 0.00 0.00 45 1012.4
20260504081534 6 0 0.0 0.0 0.00 0.00 0.00 82 1015.2
20260504044532 3 348 0.0 3.2 0.00 0.00 0.00 83 1016.1
20260504043036 3 348 1.6 3.2 0.00 0.00 0.00 82 1016.1
20260504041534 3 0 0.0 0.0 0.00 0.00 0.00 81 1016.0
20260504040035 4 0 0.0 0.0 0.00 0.00 0.00 79 1016.1
20260504034535 4 0 0.0 0.0 0.00 0.00 0.00 78 1015.8
20260504033038 5 0 0.0 0.0 0.00 0.00 0.00 77 1015.8
20260504031534 5 0 0.0 0.0 0.00 0.00 0.00 76 1015.7
20260504030041 5 0 0.0 0.0 0.00 0.00 0.00 74 1015.7
20260504024532 5 0 0.0 0.0 0.00 0.00 0.00 72 1015.7
20260504023035 6 0 0.0 0.0 0.00 0.00 0.00 71 1015.5
20260504021531 6 0 0.0 0.0 0.00 0.00 0.00 70 1015.5
20260504020033 6 0 0.0 0.0 0.00 0.00 0.00 68 1015.3
20260504014545 7 0 0.0 0.0 0.00 0.00 0.00 68 1015.1
20260504013037 7 0 0.0 0.0 0.00 0.00 0.00 65 1015.1
20260504011536 8 0 0.0 0.0 0.00 0.00 0.00 61 1015.0
20260504010034 9 0 0.0 1.6 0.00 0.00 0.00 58 1015.0
20260504004532 10 0 0.0 1.6 0.00 0.00 0.00 53 1014.8
20260504003030 11 0 0.0 1.6 0.00 0.00 0.00 49 1014.8
20260504001530 12 0 0.0 1.6 0.00 0.00 0.00 45 1014.6
20260504000043 13 348 1.6 9.7 0.00 0.00 0.00 41 1014.6
20260503234535 14 336 1.6 6.4 0.00 0.00 0.00 38 1014.4
20260503233031 15 5 1.6 9.7 0.00 0.00 0.00 38 1014.4
20260503231533 15 309 3.2 12.9 0.00 0.00 0.00 36 1014.3
20260503230032 15 19 8.0 17.7 0.00 0.00 0.00 36 1014.2
20260503224539 16 5 8.0 17.7 0.00 0.00 0.00 35 1014.2
20260503223036 16 360 6.4 24.1 0.00 0.00 0.00 34 1014.2
20260503221542 16 10 4.8 24.1 0.00 0.00 0.00 34 1014.3
20260503220035 16 328 8.0 16.1 0.00 0.00 0.00 35 1014.2
20260503214534 16 297 8.0 24.1 0.00 0.00 0.00 34 1014.3
20260503213035 16 37 9.7 20.9 0.00 0.00 0.00 34 1014.3
20260503211532 16 311 8.0 19.3 0.00 0.00 0.00 35 1014.4
20260503210048 16 352 12.9 24.1 0.00 0.00 0.00 33 1014.3
20260503204541 16 321 9.7 24.1 0.00 0.00 0.00 35 1014.4
20260503203037 16 350 9.7 17.7 0.00 0.00 0.00 34 1014.5